Theta_e
309 307 306 307 308 308 307 306 306 306 306 305 305 304 304 303 302 301 300 299 298 298 297 297 296 296 296 296 296 296 296 296 296 296 296 296 296 296 297 297 298 299 301 302 304 305 306 307 308 309 310 312 313 314 315 317 318 319 320 321 322 323 324 324 325 325 326 325 326 326 325 326 327 327 327 327 326 325 326 327 328 328 328 328 328
306 305 305 305 305 305 304 304 304 303 303 302 301 301 300 299 298 298 297 296 296 296 296 296 296 296 296 296 295 295 295 295 295 295 295 295 295 296 296 296 297 297 298 300 301 302 303 305 305 306 307 308 309 311 313 315 316 317 318 319 320 322 323 323 323 324 325 325 325 326 326 326 327 327 327 327 327 326 324 324 325 325 326 327 328
304 304 304 303 303 303 302 301 301 300 299 299 298 297 297 296 296 296 296 296 296 295 296 295 295 295 295 295 295 295 295 295 295 295 295 295 295 295 295 296 296 297 297 298 299 300 301 303 304 305 305 306 307 308 310 311 313 315 316 316 317 319 321 321 321 322 323 325 325 325 325 325 326 326 326 327 327 327 325 323 323 325 326 327 328
303 303 302 302 301 300 299 298 297 297 297 296 296 296 296 296 296 296 295 295 295 295 295 295 295 295 295 295 295 294 294 294 294 294 295 295 295 295 295 295 296 296 297 297 298 299 300 301 302 303 304 305 305 306 307 308 309 311 313 314 315 316 318 319 320 320 321 323 325 325 325 324 325 325 326 327 327 327 327 325 324 325 325 327 329
302 302 301 300 298 297 296 296 296 296 296 296 296 295 295 295 295 295 295 295 295 295 295 295 295 295 295 295 294 294 294 294 294 294 294 294 295 295 295 295 295 295 296 296 297 298 299 300 301 302 303 304 304 305 305 306 307 308 309 310 312 314 315 316 318 319 320 321 324 324 324 324 324 324 326 327 327 327 327 326 326 325 324 326 328
301 300 299 297 296 295 295 295 295 295 295 295 295 295 295 295 295 295 295 295 294 295 294 295 294 294 294 294 294 294 294 294 294 293 294 294 294 294 294 294 294 295 295 296 296 297 297 298 299 300 301 302 302 303 304 305 305 306 306 307 309 311 313 314 316 318 319 320 322 324 324 324 324 324 326 327 327 327 326 326 326 325 325 326 327
300 298 296 295 295 295 295 295 295 295 295 295 295 295 295 295 294 294 294 294 294 294 294 294 294 294 294 294 294 294 294 294 294 293 293 294 294 294 294 294 294 294 294 295 295 296 296 297 298 299 300 300 301 301 302 303 304 304 304 305 306 308 310 312 314 315 317 318 320 322 324 324 324 324 325 326 327 327 326 327 326 325 325 326 327
298 296 295 295 295 295 295 295 295 295 294 294 294 294 294 294 294 294 294 294 294 294 294 294 294 294 294 294 294 294 294 294 294 294 293 293 293 293 293 293 293 293 294 294 294 295 296 296 297 298 299 299 300 300 300 301 302 303 304 304 304 305 307 309 311 313 314 316 317 320 322 323 323 324 324 324 326 327 327 327 326 326 325 326 327
297 295 295 295 295 294 295 294 294 294 294 294 294 294 294 294 294 294 294 294 294 294 294 294 294 294 294 294 294 294 294 294 294 294 294 293 293 293 293 293 293 293 294 294 294 295 296 296 297 297 298 298 299 299 300 300 300 301 302 303 303 304 304 306 308 310 311 313 316 318 320 322 323 323 324 324 324 325 326 327 327 326 326 327 327
295 295 295 295 294 294 294 294 294 294 294 294 294 294 294 294 294 294 294 294 294 294 294 294 294 294 294 294 294 294 293 294 294 294 294 294 293 293 293 293 293 293 293 294 294 295 296 296 297 297 297 298 298 299 299 300 300 300 300 301 302 302 303 304 306 307 308 310 313 316 317 319 321 322 323 324 323 323 325 326 326 327 327 327 326
295 295 294 294 294 294 294 294 294 294 294 294 294 294 294 293 293 294 294 294 294 294 294 294 294 294 294 294 294 293 293 293 294 294 294 294 293 293 293 293 293 293 293 294 295 295 296 296 297 297 297 297 297 298 299 299 300 300 301 301 301 302 302 303 305 306 307 308 311 314 315 317 320 321 322 324 324 324 324 325 325 326 326 327 326
294 294 294 294 294 294 294 294 294 294 294 294 294 293 293 293 293 293 293 294 294 294 294 294 294 294 294 294 294 293 293 293 294 294 293 293 293 293 293 293 293 294 294 295 295 296 296 296 297 297 297 297 297 297 298 299 300 300 300 301 301 301 302 302 303 305 306 307 308 311 313 315 318 321 322 323 324 324 324 325 325 325 326 326 327
294 294 294 294 294 294 294 294 294 294 294 293 293 293 293 293 293 293 293 293 293 294 294 294 294 294 294 293 293 293 293 293 293 293 293 293 293 293 293 293 294 294 295 295 295 296 296 296 296 296 296 297 296 296 297 298 299 300 300 300 300 301 301 302 303 304 305 306 307 309 312 313 316 319 321 322 323 323 324 325 325 326 326 326 326
294 294 294 294 294 294 294 294 294 294 293 293 293 293 293 293 293 293 293 293 293 293 293 293 293 293 293 293 293 293 293 293 293 293 293 293 293 293 293 293 294 294 295 295 295 296 296 296 296 295 296 296 295 295 296 297 297 298 298 299 299 300 301 302 303 303 304 305 306 308 310 312 314 317 320 321 321 322 323 324 324 325 326 326 325
294 294 294 294 294 294 294 293 293 293 293 293 293 293 293 293 293 293 293 293 293 293 293 293 293 293 293 293 293 293 293 293 293 293 293 293 293 293 293 294 294 294 295 295 295 295 295 295 295 295 295 295 295 295 295 296 297 297 297 298 299 300 301 301 302 303 304 305 306 308 310 312 314 316 319 321 321 321 322 322 322 323 325 325 325
294 294 294 294 293 293 293 293 293 293 293 293 293 293 293 293 293 293 293 293 293 293 293 293 292 293 293 293 293 293 293 293 293 293 293 293 293 293 294 294 294 294 294 294 294 295 294 294 294 294 294 294 295 295 295 296 297 297 298 298 299 300 301 301 302 303 304 305 306 308 310 311 313 315 318 320 321 322 322 322 322 323 324 325 325
295 295 295 294 294 293 293 293 293 293 293 293 293 293 293 293 293 293 293 293 293 292 292 292 292 292 292 293 293 293 293 293 293 293 292 292 292 293 294 293 293 293 294 294 294 294 294 294 294 294 294 294 295 295 296 296 297 297 298 298 299 299 300 301 302 303 304 305 307 309 311 312 313 315 317 320 322 322 321 321 321 322 323 324 324
296 296 295 295 294 294 293 293 293 293 293 293 293 293 293 293 293 293 293 292 292 292 292 292 292 292 292 292 293 293 293 293 292 292 292 291 292 293 294 293 293 293 293 293 294 294 293 293 293 293 294 294 294 295 296 296 297 297 297 297 298 299 300 301 302 303 304 306 307 309 311 312 314 315 317 319 321 322 321 321 320 320 322 323 323
296 296 296 295 295 294 293 293 293 293 293 293 293 293 293 293 293 293 292 292 292 292 292 292 292 292 292 292 292 293 293 293 292 292 292 291 291 292 293 293 293 293 293 293 293 293 293 293 293 293 293 294 294 295 295 296 296 297 297 297 297 298 299 300 301 302 304 305 306 308 309 311 313 316 317 319 321 322 321 321 321 321 321 322 322
297 296 296 296 295 295 294 293 293 293 293 293 293 293 293 293 293 293 292 292 292 292 292 292 292 292 292 292 292 293 293 293 292 292 292 291 291 292 293 292 292 293 293 293 293 293 293 293 293 293 293 293 294 294 295 295 296 296 296 296 296 297 298 300 301 302 303 304 305 306 307 308 311 314 317 319 321 322 321 321 321 320 321 322 322
297 297 297 296 296 295 295 294 293 293 293 293 293 293 293 293 293 293 292 292 292 292 292 292 292 291 292 292 292 293 293 293 293 292 292 291 291 291 292 291 291 292 293 293 293 293 293 292 292 292 293 293 294 294 295 295 296 296 296 296 296 297 298 299 300 301 302 302 303 304 305 306 308 311 314 317 320 321 321 321 321 320 320 321 321
297 297 297 296 296 296 295 294 294 293 293 293 293 293 293 293 293 293 293 292 292 292 292 292 292 291 291 291 292 292 293 293 293 292 292 292 291 291 291 291 291 291 292 292 292 292 292 292 292 292 293 293 293 294 294 295 295 296 296 296 297 297 298 299 299 300 301 301 302 302 303 305 306 308 311 314 317 318 319 320 320 320 319 320 320
297 297 297 297 296 296 296 295 294 294 293 293 293 293 293 293 293 293 293 292 292 292 292 292 292 291 291 291 291 292 292 293 293 292 292 292 291 291 291 291 291 291 292 292 292 292 292 292 292 292 292 293 293 294 294 295 295 295 296 296 297 297 298 298 298 299 299 300 301 301 302 303 305 306 308 311 313 315 317 319 320 320 319 319 319
297 297 297 297 297 296 296 296 295 294 293 293 293 293 293 293 293 293 293 292 292 292 292 292 292 291 291 291 291 291 292 292 292 292 292 292 292 292 291 291 291 292 292 292 292 292 292 291 292 292 292 293 293 293 294 294 294 295 295 296 296 297 297 298 298 298 298 298 299 300 300 302 303 304 306 308 309 311 314 316 317 318 319 318 318
298 297 297 297 297 297 296 296 296 295 294 293 293 293 293 293 293 293 293 292 292 292 292 292 292 291 291 291 291 291 291 291 292 292 292 292 292 292 291 291 291 292 292 292 292 292 292 292 292 292 292 292 292 292 293 293 294 294 295 295 296 296 297 297 297 297 297 298 298 298 299 300 301 303 304 306 308 309 311 313 314 316 317 318 318
298 298 297 297 297 297 297 296 296 295 294 293 293 293 293 293 293 293 293 292 292 292 292 291 291 291 291 291 291 291 291 291 291 291 292 292 292 292 292 291 291 291 292 292 292 291 292 292 292 292 292 292 292 292 292 292 293 294 294 295 295 295 296 296 296 296 297 297 298 298 298 299 300 302 303 305 307 308 309 310 312 313 315 316 317
298 298 298 298 297 297 297 296 296 296 295 294 293 293 293 293 293 293 293 292 292 292 292 291 291 291 291 291 291 291 291 291 291 291 291 291 291 292 292 292 291 291 291 292 292 291 292 292 291 291 291 291 292 292 292 292 292 293 293 294 295 295 295 296 296 296 296 297 297 297 298 299 300 301 302 303 305 306 307 308 310 311 311 312 313
298 298 298 298 297 297 297 296 296 296 295 294 293 293 293 293 293 293 293 293 293 292 292 292 291 291 291 291 291 291 291 291 291 290 290 291 291 291 291 291 291 291 291 291 291 291 291 292 292 291 291 291 291 291 291 291 291 292 292 293 294 295 295 296 296 296 296 296 297 297 298 298 299 300 300 301 302 303 304 305 307 307 308 309 310
298 298 298 298 298 297 297 296 295 295 295 294 294 293 293 293 293 293 293 293 293 293 292 292 292 292 291 291 291 291 291 291 291 290 290 290 290 291 291 291 291 291 291 291 291 291 291 291 291 292 291 291 291 291 291 291 291 291 292 292 293 294 295 295 296 296 296 297 297 297 297 298 298 299 299 300 301 301 302 303 304 305 306 307 308
298 297 298 298 297 296 296 295 295 295 295 295 294 294 294 294 294 294 294 293 293 293 293 293 292 292 292 292 291 291 291 291 291 291 290 290 290 290 291 290 290 291 291 291 291 291 291 291 291 291 291 291 291 290 291 291 291 291 291 292 292 293 294 295 295 295 296 296 297 297 297 297 298 298 299 299 300 300 301 301 302 303 304 305 305
297 297 297 297 296 295 295 295 295 295 295 295 295 294 294 294 294 294 294 294 294 294 293 293 293 293 292 292 292 291 291 291 291 291 290 290 290 290 290 290 290 291 291 291 292 291 291 291 291 291 291 291 291 290 290 290 291 291 291 291 292 292 293 294 295 295 295 295 296 296 297 297 297 297 298 298 299 299 300 300 301 301 302 302 302
296 296 297 296 295 295 295 295 295 294 294 294 294 294 295 295 295 295 295 294 294 294 294 294 294 293 293 292 292 291 291 291 291 291 290 290 290 290 290 290 290 290 291 291 292 291 291 291 291 291 291 291 290 290 289 290 290 291 291 291 291 291 292 293 294 295 295 295 295 295 296 297 297 297 297 298 298 298 299 299 300 300 301 301 301
296 297 297 296 295 296 296 295 295 294 294 294 294 294 295 295 295 295 295 295 295 294 294 294 294 294 293 293 292 292 291 291 291 291 291 290 290 290 290 290 290 290 290 291 292 292 291 291 291 291 291 291 290 290 289 289 290 291 291 291 291 291 291 292 292 293 294 295 295 295 295 296 296 296 296 297 297 298 298 298 299 299 300 300 300
297 297 297 296 295 296 296 295 295 295 294 294 294 294 294 295 295 295 295 295 295 295 294 294 294 294 294 293 293 292 292 292 291 291 291 290 290 290 290 290 290 290 290 291 291 292 291 291 291 291 291 290 290 290 289 289 289 290 291 291 291 291 291 291 291 291 292 293 294 295 295 295 296 296 296 296 296 297 298 298 298 298 298 299 299
298 297 297 296 296 296 296 296 296 295 295 295 294 294 294 294 294 294 295 295 295 295 295 295 294 294 294 294 293 293 292 292 292 291 291 291 290 290 290 290 290 290 290 290 291 291 291 291 291 291 291 291 291 290 289 289 289 290 291 290 290 290 290 290 290 291 291 292 293 294 295 295 295 295 295 296 296 296 297 297 297 297 297 297 298
298 297 296 296 296 296 296 297 296 296 295 295 295 295 294 294 294 294 294 294 294 295 295 295 295 294 294 294 294 293 293 292 292 291 291 291 291 291 290 290 290 290 290 290 290 291 291 291 291 291 291 291 291 290 289 288 289 290 290 290 290 290 290 290 290 290 291 291 291 292 294 295 295 295 295 296 296 296 296 297 297 297 297 297 297
298 297 296 296 296 296 296 297 297 296 296 295 295 295 294 294 294 294 294 294 294 295 295 295 295 295 295 295 294 293 293 293 292 292 291 291 291 291 291 291 291 291 291 291 290 290 291 291 291 291 291 291 291 290 289 288 289 290 290 291 290 290 290 290 290 291 291 290 290 291 292 294 295 295 295 295 295 296 295 296 296 297 297 297 297
298 297 296 296 296 296 296 296 296 296 296 296 295 295 295 295 295 294 294 294 294 294 295 295 295 295 295 295 294 293 293 293 292 292 291 291 291 291 291 291 291 291 291 291 290 290 291 291 291 291 291 291 291 290 289 288 289 290 290 290 291 291 291 291 291 291 291 291 290 290 291 292 293 294 295 295 295 295 295 295 295 296 296 296 296
298 297 296 296 296 296 296 296 296 296 296 296 296 295 295 295 295 295 295 294 294 294 294 294 295 295 295 294 294 293 293 293 293 292 291 291 291 291 291 291 291 291 291 291 290 290 291 291 291 291 291 291 290 290 289 288 289 290 290 290 291 291 291 291 291 291 291 291 291 290 290 291 292 293 294 295 295 295 295 295 295 294 295 295 296
298 297 296 296 296 296 296 296 295 295 295 295 295 295 295 295 295 295 295 295 295 294 294 294 294 294 294 294 293 293 293 293 293 293 292 291 291 291 291 292 292 291 291 291 291 290 290 291 291 291 291 290 290 289 288 288 289 290 290 290 290 290 290 290 290 290 290 290 291 291 290 290 291 292 293 294 295 295 295 295 295 295 294 294 295
298 298 297 296 296 296 296 296 296 295 295 295 295 295 295 295 295 295 295 295 295 294 294 294 294 294 293 293 293 293 293 293 293 293 292 292 291 291 291 291 292 292 291 291 291 290 290 290 290 290 290 290 290 289 288 288 289 290 289 289 290 290 290 290 289 288 287 287 289 290 291 290 291 291 292 293 294 295 295 295 295 295 295 294 294
298 298 298 297 297 296 296 296 296 295 295 295 295 295 295 295 295 295 295 295 295 294 294 294 294 293 293 293 292 292 292 292 292 292 292 292 292 291 291 291 291 292 292 291 291 291 290 290 290 290 290 289 289 289 288 288 289 289 290 289 289 289 290 290 289 288 286 285 286 288 290 291 291 291 291 292 293 294 294 294 295 295 295 295 294
298 298 298 298 297 296 296 296 295 295 295 295 295 295 295 295 295 295 295 295 295 294 294 294 294 294 293 293 293 292 292 292 292 292 292 292 292 292 291 291 291 291 291 291 291 291 291 290 290 289 289 289 288 288 289 288 288 289 289 290 290 290 290 290 289 288 286 286 286 287 288 290 291 290 291 291 292 293 293 294 294 295 295 295 295
298 298 298 298 297 297 296 295 295 295 295 295 295 295 295 295 295 295 295 295 294 294 294 294 294 294 294 293 293 293 292 292 292 292 292 292 292 292 291 291 291 291 291 291 291 291 291 291 290 289 288 288 287 287 288 288 288 288 289 289 290 290 290 290 290 289 288 286 286 286 288 289 290 290 290 291 291 291 292 293 294 294 294 295 295
297 298 298 298 297 297 296 295 295 295 295 295 295 295 295 295 295 295 295 294 294 294 294 294 294 294 294 294 293 293 293 293 292 292 292 292 292 292 291 291 291 291 291 290 290 290 290 291 290 289 288 287 287 286 287 288 288 288 288 289 289 289 290 290 290 290 289 288 286 286 287 288 289 290 290 290 290 290 291 292 293 293 294 294 294
296 297 297 297 297 297 296 295 295 295 295 295 295 295 295 295 295 295 295 295 294 294 294 294 294 294 294 294 294 294 293 293 293 292 292 292 292 292 292 291 291 291 291 290 290 290 290 290 290 289 288 288 287 287 287 287 288 288 288 288 288 289 289 290 290 290 290 289 288 287 286 287 287 288 289 290 290 290 290 291 291 292 293 293 294
296 296 297 297 297 297 296 296 295 295 296 296 295 295 294 295 295 295 295 295 295 295 295 295 295 294 294 294 294 294 294 293 293 293 293 293 293 292 292 292 291 291 291 290 290 290 289 290 290 290 289 288 288 288 287 287 287 287 287 288 288 288 289 289 289 290 290 290 289 288 287 286 286 287 288 289 290 290 290 290 290 291 292 292 293
296 296 296 296 296 296 296 295 295 295 296 296 296 295 295 295 295 295 295 295 295 295 295 295 295 295 295 294 294 294 294 294 293 293 293 293 293 293 293 292 292 291 291 291 290 290 290 289 290 289 289 288 288 288 288 288 288 287 287 287 287 288 288 289 289 289 290 290 290 289 288 287 286 286 287 288 289 290 290 290 290 290 290 291 292
297 297 296 296 296 296 296 295 295 295 296 296 296 295 295 295 295 295 295 295 295 295 295 295 295 295 295 295 294 294 294 294 294 293 293 293 293 293 293 293 292 292 291 291 290 290 290 290 290 290 289 288 288 288 288 288 288 288 288 288 287 287 288 288 288 289 289 290 290 290 289 289 288 287 286 287 288 289 290 290 290 290 290 290 291
298 297 297 297 296 296 296 296 295 295 295 296 296 296 295 295 295 295 295 295 295 295 295 295 295 295 295 295 295 294 294 294 294 294 293 293 293 293 293 293 293 292 291 291 291 290 290 290 290 290 289 289 288 288 289 288 288 288 288 288 288 288 288 288 288 288 288 289 289 289 289 289 289 288 287 287 287 288 289 290 290 290 290 290 291
298 298 298 297 297 297 297 296 295 295 295 296 296 296 296 295 295 295 295 295 295 295 295 295 295 295 295 295 295 295 295 294 294 294 294 293 293 293 293 293 293 292 292 291 291 290 290 290 290 290 290 290 289 289 289 289 289 289 289 289 289 288 288 288 288 288 288 288 288 289 289 289 289 289 288 288 287 287 288 289 290 290 290 290 290
Wind_Speed
6 6 6 7 8 10 12 14 15 15 14 15 15 16 16 17 17 17 17 17 18 18 19 20 20 21 22 23 24 25 26 26 27 27 27 28 28 28 28 28 28 28 28 28 28 28 28 28 27 25 24 24 23 24 24 24 25 25 26 28 29 29 29 27 28 32 33 32 33 33 31 30 31 30 28 26 27 29 31 31 32 34 37 39 39
6 7 9 11 12 14 14 14 14 14 14 15 16 16 17 17 17 17 17 18 18 19 20 20 21 21 22 23 24 25 27 27 28 29 29 30 30 30 30 30 30 30 30 31 31 31 30 30 30 29 28 26 25 26 26 26 27 27 26 28 29 28 28 28 28 30 32 31 31 33 30 28 30 31 30 29 28 30 32 33 32 33 35 38 39
9 11 12 13 14 13 13 14 14 14 15 16 17 17 17 18 17 18 18 19 19 19 20 21 21 22 22 24 25 26 27 28 29 30 30 31 32 32 32 32 31 31 31 32 32 32 32 32 31 30 30 29 28 28 28 28 29 29 28 28 29 29 28 27 27 29 31 29 28 30 30 28 29 29 30 31 29 29 32 35 35 34 34 36 39
12 13 13 13 12 12 13 14 14 15 16 17 18 18 18 18 18 18 19 19 19 20 21 21 22 23 24 25 26 27 28 28 29 30 31 31 32 32 32 32 32 32 31 31 32 32 32 32 32 31 30 30 30 30 30 30 30 31 31 31 31 31 30 29 28 28 29 29 27 27 28 29 29 29 29 31 31 29 30 34 36 36 35 35 38
12 12 12 11 12 13 14 15 16 17 18 18 18 18 18 18 18 18 19 19 20 20 21 22 23 24 25 26 26 27 27 28 29 29 30 31 31 31 32 32 32 32 31 31 31 31 32 32 32 31 30 30 30 31 31 32 32 32 32 33 33 33 32 31 30 29 29 29 29 27 25 26 27 29 29 29 29 29 31 34 35 36 34 34 37
11 11 11 12 14 15 16 17 17 18 18 18 18 18 18 18 18 19 19 19 20 21 21 22 23 24 25 25 26 26 27 28 29 29 30 30 31 31 32 32 32 31 31 31 31 32 32 32 31 31 30 30 30 31 32 32 33 33 33 33 33 34 35 34 32 31 30 30 30 27 24 23 24 27 29 28 27 28 31 32 32 33 32 33 35
10 12 13 15 17 17 18 18 18 18 18 18 18 18 18 18 18 19 19 19 19 20 21 22 22 23 24 24 26 27 28 29 30 31 31 31 32 33 33 34 34 33 33 32 32 31 32 32 31 31 31 30 30 30 31 32 33 33 33 33 33 33 34 35 34 33 32 31 30 27 25 24 23 24 27 27 27 28 31 32 32 32 33 34 34
11 13 15 18 19 18 18 18 18 17 17 17 18 18 18 19 19 19 19 19 19 20 20 21 22 22 23 24 25 26 28 29 31 32 32 32 33 34 34 35 35 35 35 34 33 32 32 32 31 31 30 30 30 30 30 31 32 33 33 34 34 33 33 33 34 34 32 31 32 29 25 25 25 24 24 26 27 29 31 33 34 34 34 34 34
12 15 17 18 19 18 18 18 18 18 18 18 18 19 19 19 19 19 19 20 20 20 20 21 21 22 23 24 25 26 27 28 29 30 31 32 33 34 34 35 36 36 36 35 35 34 33 33 31 30 30 29 30 30 30 30 30 31 32 32 34 34 33 32 32 32 31 31 32 31 28 25 27 27 26 25 25 26 27 29 32 35 34 33 33
14 16 17 18 18 18 18 18 19 18 19 19 19 20 20 20 20 20 21 21 21 21 21 21 21 22 23 23 24 25 27 27 27 28 29 30 31 33 34 35 35 35 35 35 34 35 35 35 34 33 32 31 30 31 31 31 30 30 30 30 31 33 33 33 31 30 30 29 29 31 29 26 26 28 29 28 25 26 28 30 31 33 33 33 33
17 18 19 19 18 18 19 19 19 19 19 20 20 20 21 21 21 22 22 22 22 22 21 21 22 22 23 23 24 25 26 26 26 26 27 29 31 33 34 34 34 34 34 34 33 34 35 36 37 37 37 36 35 34 32 32 32 32 31 29 29 29 31 31 31 29 29 29 28 28 29 29 27 26 27 28 27 27 30 32 33 33 34 35 35
19 20 20 20 19 19 19 19 19 19 19 20 20 21 21 22 23 23 24 23 23 22 22 22 22 22 22 22 23 24 25 25 25 26 28 29 31 32 33 33 32 32 31 31 32 35 36 37 38 39 39 40 40 39 37 34 33 33 33 32 30 29 29 29 29 28 28 29 29 28 28 30 29 26 25 27 29 30 29 30 34 36 36 36 37
21 21 21 20 20 20 19 19 19 19 20 20 21 22 23 24 24 24 24 24 23 22 22 22 21 21 22 23 23 24 25 25 25 27 28 29 31 31 31 31 30 29 28 30 32 35 37 38 39 39 41 41 40 41 42 40 37 35 35 35 35 33 31 29 28 27 26 27 29 30 29 28 30 29 25 24 28 31 30 31 35 38 38 38 38
22 22 22 21 20 20 19 19 19 20 20 21 22 23 24 25 25 24 24 23 23 23 22 22 22 22 23 24 24 25 25 25 27 28 29 29 31 31 31 31 31 28 27 30 34 35 37 39 38 39 41 41 40 41 42 42 41 40 38 38 37 36 34 32 30 29 27 27 28 31 31 29 30 30 27 25 28 30 30 31 35 39 40 39 38
23 23 22 21 20 19 19 19 19 20 20 21 22 23 24 24 24 24 24 24 24 23 23 23 24 24 24 25 25 25 26 27 28 29 30 31 32 32 31 31 29 26 27 32 35 36 37 37 36 38 39 39 40 41 41 41 42 42 42 41 39 38 37 35 33 30 29 28 27 29 31 30 30 30 28 27 28 29 30 31 33 37 39 38 37
24 23 23 21 20 19 18 19 20 20 20 21 22 23 23 23 24 24 23 24 24 24 25 25 25 26 26 26 26 26 26 27 27 29 31 33 33 31 27 27 29 28 29 31 33 34 36 36 35 37 39 39 39 40 40 40 40 40 41 41 40 39 38 37 34 31 30 29 27 26 28 30 30 29 27 26 27 28 29 30 33 38 40 40 39
24 23 22 21 20 19 18 19 19 20 20 20 21 22 22 22 22 22 23 23 24 25 26 26 26 26 27 27 27 27 27 27 28 29 31 33 34 28 23 25 31 30 27 26 26 28 33 35 35 37 38 38 39 39 38 38 38 38 39 40 40 39 38 38 36 32 30 29 25 21 21 25 28 27 26 25 26 27 28 31 34 36 38 40 42
23 22 21 20 19 19 19 19 19 19 19 20 20 20 21 21 21 22 22 23 24 25 26 26 26 26 27 27 28 28 28 29 29 30 31 33 33 27 20 23 28 28 27 26 24 25 29 33 35 37 36 37 38 38 37 35 35 35 37 38 38 38 37 38 38 35 33 30 24 19 17 19 22 24 25 25 26 27 29 31 31 33 35 38 41
22 21 20 20 19 19 18 18 18 18 18 18 19 19 20 20 20 21 22 23 24 24 25 25 25 26 27 27 27 28 28 29 29 30 31 32 33 28 22 24 27 27 27 26 24 24 26 28 33 36 35 35 37 38 36 34 32 33 35 36 36 36 36 36 35 33 32 29 25 22 19 18 18 20 23 25 26 27 29 31 30 31 36 38 39
21 20 19 19 19 18 18 17 17 17 17 17 17 17 18 18 18 19 21 22 22 23 23 24 25 25 26 26 27 27 28 28 29 31 31 31 31 29 27 29 31 28 27 25 23 24 25 26 31 35 35 35 37 37 37 35 32 31 33 34 34 34 33 32 29 27 25 23 22 21 20 19 18 18 20 22 24 24 25 28 29 31 34 39 40
20 19 18 18 17 17 17 16 15 15 15 15 15 15 16 16 17 18 19 20 20 21 22 23 24 25 25 26 27 26 27 28 29 30 31 30 30 29 29 31 32 30 31 29 25 24 26 28 33 36 35 35 36 37 38 37 34 31 32 32 31 29 28 28 26 24 22 21 20 19 18 17 16 15 16 18 20 20 20 22 27 30 32 36 40
19 18 17 16 16 16 15 14 14 13 14 14 13 14 14 15 15 16 17 18 19 19 21 22 23 24 25 26 26 26 26 27 28 28 29 29 29 29 28 29 29 30 33 33 30 29 30 32 34 36 36 36 36 37 39 39 37 34 32 32 31 30 28 27 26 24 23 24 23 22 21 18 16 14 12 11 12 14 14 15 21 27 33 37 38
18 17 16 15 14 14 13 13 12 12 12 12 12 12 12 13 14 15 15 17 17 18 19 20 21 23 24 25 26 26 26 27 27 27 28 28 29 29 28 27 27 28 30 32 33 34 34 33 34 36 37 38 37 38 39 40 40 39 36 34 33 32 31 31 29 27 25 25 26 26 25 23 21 19 15 11 7 7 9 12 16 21 29 36 39
16 15 14 13 12 12 11 11 10 10 10 10 11 11 11 11 12 14 15 16 17 18 19 19 21 22 24 25 26 26 27 27 26 26 26 27 28 28 27 27 26 26 28 29 31 33 34 34 34 36 38 40 40 40 40 41 42 42 41 38 36 34 33 34 34 33 31 30 28 28 28 26 24 23 20 17 13 9 8 10 12 15 20 28 36
15 14 12 12 11 10 9 9 8 8 8 9 9 9 9 10 11 13 14 15 16 17 18 19 20 22 23 24 25 26 27 27 27 27 26 26 26 26 27 26 25 25 26 27 29 31 32 34 36 38 39 40 42 43 43 43 43 43 44 43 40 38 36 36 35 35 35 34 32 30 28 27 26 24 22 18 15 12 11 10 9 9 11 16 26
14 12 11 10 9 8 8 7 7 6 6 7 7 7 8 9 10 11 13 14 16 17 17 18 20 21 22 23 24 26 27 28 28 28 28 28 27 26 26 25 25 25 25 26 27 29 31 34 37 39 40 42 44 45 46 45 44 44 45 46 45 42 40 38 37 36 35 36 35 33 30 28 26 25 23 21 19 18 17 15 13 11 8 8 15
13 12 11 9 8 8 7 6 5 5 5 5 6 6 7 8 9 10 12 13 14 16 17 18 19 20 21 22 24 26 27 27 28 29 30 30 28 27 27 26 25 25 25 25 27 28 31 34 36 38 40 42 44 46 46 47 47 46 47 47 47 45 42 40 39 38 37 36 36 36 34 33 31 30 27 24 23 22 20 17 14 13 11 7 7
13 12 11 9 8 7 6 5 5 4 4 4 4 5 6 7 8 9 10 11 13 14 15 17 18 19 21 22 23 25 26 26 28 29 29 29 28 27 27 27 25 24 24 24 25 27 30 33 36 38 40 42 44 45 46 48 47 47 48 48 47 46 44 42 42 41 41 40 39 39 38 38 37 36 33 31 28 25 22 19 17 15 13 9 5
13 13 12 11 9 8 7 6 5 5 4 4 4 4 5 6 7 8 9 10 11 12 14 15 16 18 19 21 22 23 24 25 25 26 27 27 26 26 26 26 25 22 20 20 23 27 30 34 37 39 40 40 43 44 45 46 47 46 47 48 48 47 46 46 46 45 43 43 43 42 41 40 40 39 37 36 35 30 25 21 18 15 13 10 8
13 13 13 12 11 10 8 7 6 5 5 4 4 4 4 5 6 7 7 8 10 11 12 13 14 16 17 18 20 21 22 22 23 24 25 26 26 25 25 25 24 21 18 18 22 27 30 33 36 39 37 36 40 43 43 44 45 45 45 47 48 48 47 46 46 45 44 43 43 42 42 42 42 41 40 39 37 34 29 24 20 16 15 14 13
13 13 13 13 13 11 10 8 7 5 5 5 4 3 3 4 5 6 6 7 8 10 11 12 14 15 15 17 18 18 20 21 22 23 25 25 25 26 25 25 25 23 19 18 21 27 30 31 33 35 33 33 38 41 40 41 42 41 43 45 47 48 48 46 45 45 45 45 43 42 42 42 43 42 42 40 39 36 33 30 27 23 19 17 15
14 13 13 14 14 13 10 9 7 6 6 5 4 3 2 2 3 4 5 6 7 8 10 11 12 13 14 16 16 17 18 20 21 22 23 24 24 25 25 26 27 27 24 21 21 24 27 28 29 30 29 30 35 38 39 39 39 38 39 42 44 46 47 46 45 44 44 45 45 44 41 41 42 43 42 41 40 39 37 36 33 30 25 21 18
13 13 13 15 15 13 10 8 7 7 6 6 5 4 3 2 1 2 4 6 7 8 9 10 11 12 13 14 15 16 17 19 20 21 22 23 23 23 24 26 28 30 29 24 20 20 23 25 27 27 26 29 34 37 38 38 36 35 36 38 40 42 43 44 45 45 44 44 45 45 42 39 40 42 43 42 41 40 40 39 37 35 31 27 24
11 12 14 16 16 13 10 9 7 7 6 6 5 4 3 2 2 2 3 4 6 7 8 10 10 11 12 13 14 15 16 17 19 19 20 22 22 23 24 25 28 31 31 25 19 19 22 25 25 25 25 28 30 33 36 37 35 33 34 35 37 38 39 41 43 44 44 44 44 45 44 41 39 38 40 43 43 41 40 40 40 39 37 34 31
10 11 14 16 16 13 11 9 7 6 6 5 5 4 3 2 2 2 2 3 5 6 7 8 10 11 12 12 13 14 15 16 17 18 19 21 21 22 24 26 27 30 30 26 22 21 22 23 24 23 25 27 27 28 34 36 33 31 31 32 34 36 37 39 41 41 42 43 43 43 44 43 40 35 34 39 43 43 40 39 40 40 40 38 35
11 11 15 17 16 13 11 9 7 6 6 4 4 3 2 1 0 1 2 3 4 6 7 8 9 10 11 12 13 13 14 15 16 17 17 19 20 22 24 25 26 27 26 25 24 23 21 22 23 23 24 26 25 28 33 35 31 29 29 29 31 33 34 36 38 38 40 41 42 42 43 44 42 38 34 35 38 41 40 39 38 39 40 39 38
11 11 15 18 16 13 12 10 8 8 7 6 5 4 3 2 2 2 3 4 5 6 7 8 9 10 11 12 13 13 13 13 15 15 16 17 19 20 22 23 23 24 24 24 25 24 22 22 23 22 23 25 25 28 33 34 30 27 27 27 27 29 31 33 34 36 37 39 40 41 41 42 42 41 38 35 36 38 40 39 38 38 38 38 37
11 10 14 17 16 13 12 10 9 9 9 9 8 7 6 5 5 4 4 5 6 7 8 9 10 10 11 12 13 13 13 13 14 14 15 16 18 19 20 21 21 22 22 22 23 23 22 22 22 22 22 23 24 27 32 32 28 26 26 26 25 26 28 30 32 33 35 36 37 38 39 39 40 40 39 37 37 38 38 38 38 38 37 36 36
12 11 13 16 16 13 11 10 10 10 11 11 11 9 8 8 7 6 6 6 7 7 8 9 10 11 11 12 12 13 12 12 13 14 15 16 16 17 18 19 20 20 21 21 22 22 21 21 22 22 21 21 23 27 31 30 27 25 25 25 25 26 27 29 31 32 32 32 33 34 35 36 36 37 37 36 36 36 36 36 37 37 36 36 35
13 12 13 15 15 13 11 10 11 11 12 12 12 11 10 9 9 8 8 8 7 8 8 9 9 10 11 11 11 12 11 11 12 12 13 15 15 16 17 17 18 19 20 20 21 21 21 21 21 21 21 22 25 28 29 27 25 24 24 25 25 26 27 28 30 30 30 29 29 30 31 32 33 34 34 34 35 35 35 34 34 33 34 34 34
14 13 12 12 13 12 12 11 11 11 11 12 12 12 11 11 10 10 10 10 9 8 8 7 7 8 9 9 9 10 10 11 11 11 12 13 14 15 15 16 16 17 18 19 19 20 20 21 21 21 21 24 25 27 27 25 24 23 24 24 25 25 26 28 30 30 29 28 27 26 27 28 29 30 31 31 32 32 33 33 32 32 31 32 32
15 14 13 11 11 12 13 13 12 12 12 12 13 12 11 11 11 11 11 10 9 8 7 6 5 6 7 7 8 8 9 10 11 11 11 12 13 13 14 14 15 15 16 17 18 19 19 20 21 21 22 23 24 25 25 24 23 22 22 23 24 25 26 28 30 30 30 29 27 24 23 24 27 28 28 28 29 29 30 31 31 30 30 30 30
16 16 14 13 11 11 12 13 13 13 13 13 13 12 11 11 11 11 10 10 9 8 7 5 4 5 5 6 7 7 8 9 10 10 10 11 12 13 13 13 14 14 14 15 16 17 18 19 20 20 21 22 23 23 23 23 22 21 21 21 22 23 25 27 29 30 31 30 28 25 23 22 24 25 26 26 26 26 27 28 28 27 27 28 28
18 18 17 15 13 12 13 14 15 14 13 13 13 12 12 11 11 10 10 9 8 8 7 6 5 4 5 5 6 7 8 8 9 9 9 10 11 12 13 13 13 13 13 14 14 15 16 18 19 19 20 21 21 21 21 21 21 20 20 20 21 22 23 25 27 29 30 30 29 26 23 21 21 22 24 25 25 25 24 25 25 25 25 26 28
19 20 19 18 16 14 14 15 16 15 14 13 13 13 13 12 11 10 9 9 9 8 7 6 6 5 5 6 6 7 7 8 8 8 8 9 10 11 12 13 13 13 13 13 14 14 15 16 17 18 20 21 21 20 20 20 20 20 20 19 19 20 21 22 24 26 27 28 28 26 23 22 21 20 20 22 23 24 23 22 22 22 23 24 25
19 20 21 20 18 17 16 16 17 17 15 14 14 14 14 13 12 11 9 9 9 9 8 7 7 7 7 7 7 7 7 7 7 7 7 8 9 11 12 13 13 13 12 12 13 13 14 15 15 16 18 19 20 20 19 20 19 19 19 19 18 18 19 19 21 22 24 26 27 26 24 22 20 19 18 18 19 21 22 21 20 19 19 20 20
17 19 20 20 20 18 18 18 18 18 17 16 15 15 15 14 13 12 11 10 10 10 10 9 9 9 9 9 9 9 8 8 8 8 8 8 9 10 11 12 12 13 13 12 12 13 13 14 14 15 15 17 18 18 18 19 19 19 19 19 18 17 17 17 18 19 21 22 24 24 24 22 21 19 17 17 17 18 19 20 20 18 16 16 16
15 17 18 19 18 18 17 18 19 20 19 18 17 16 16 15 15 14 13 12 12 12 12 12 11 11 11 11 11 11 11 10 9 9 9 9 9 10 11 12 12 12 12 12 12 12 13 13 14 14 13 14 15 16 16 17 18 19 20 20 19 18 17 16 16 17 18 19 20 22 22 22 21 19 17 17 17 17 17 18 20 19 16 14 13
15 15 16 17 18 18 17 18 19 20 20 19 18 18 17 17 17 16 15 14 14 14 14 14 14 13 13 13 13 13 13 13 12 11 11 11 11 11 11 12 12 12 12 12 12 12 12 12 13 13 12 12 12 13 14 15 16 17 19 20 20 20 18 17 16 15 15 16 17 19 20 20 20 19 17 16 15 15 15 16 17 19 17 13 11
16 16 16 17 18 19 19 19 19 20 20 20 20 19 18 18 18 18 18 17 17 16 16 16 16 15 15 15 15 15 15 15 15 14 13 12 12 12 12 12 12 11 11 11 11 11 11 12 12 12 12 11 11 11 11 12 13 15 16 18 19 20 20 19 17 16 15 15 15 16 17 18 18 18 17 15 14 14 14 14 15 17 17 14 12
18 17 17 17 17 18 19 20 20 20 20 21 21 21 21 20 19 19 19 19 19 19 19 18 18 17 17 17 17 17 17 17 17 16 15 14 14 14 13 13 12 12 11 11 11 11 11 11 12 12 11 11 10 10 10 10 11 12 13 15 16 17 18 19 19 18 17 16 15 14 15 15 16 16 16 15 14 13 12 12 13 15 15 14 12
Wind_Direction
19 35 59 69 71 74 71 68 67 65 63 61 57 56 54 51 50 46 42 39 35 32 29 27 25 22 20 17 15 14 13 12 12 12 12 12 12 10 8 6 3 0 359 357 356 354 351 348 343 336 329 325 322 320 318 315 310 308 305 303 301 299 297 300 301 297 294 294 291 288 285 283 279 276 274 267 251 241 238 233 232 234 234 234 231
49 70 78 80 79 78 75 72 70 66 64 62 59 58 56 54 52 48 44 43 40 37 35 32 29 27 25 24 22 20 18 17 16 15 15 15 14 13 11 8 5 3 0 358 356 355 353 352 350 346 340 334 328 324 321 319 316 314 312 310 307 302 297 298 301 299 297 296 295 292 288 283 279 275 271 264 252 243 239 234 231 234 236 237 234
89 91 87 83 79 77 74 71 70 69 67 66 64 62 60 58 55 51 49 47 44 41 39 35 32 30 28 27 26 24 22 20 19 18 17 16 15 13 11 10 7 5 2 359 356 354 353 352 351 348 345 342 337 332 327 322 318 316 316 316 314 309 303 300 299 299 296 294 294 295 291 285 281 278 270 262 255 248 242 234 231 234 237 237 235
98 92 86 82 78 76 76 76 75 75 72 70 68 66 64 61 58 55 52 49 46 43 40 37 33 31 30 28 26 25 23 21 20 19 18 16 15 13 11 9 7 5 3 0 357 355 353 352 350 348 345 342 339 336 332 329 325 320 317 316 316 313 310 306 303 301 299 295 293 295 295 290 287 283 273 262 254 248 242 237 234 235 239 238 233
97 91 86 84 83 82 84 84 81 78 75 73 72 70 67 64 61 57 53 49 47 44 40 37 34 31 29 27 25 24 22 21 20 19 17 16 14 12 9 8 6 5 3 1 358 357 355 352 350 348 344 341 339 337 334 332 329 327 322 319 316 313 312 311 307 304 304 300 294 292 293 292 289 287 277 261 252 247 241 238 236 234 237 239 234
96 95 94 94 94 92 90 87 82 79 77 75 73 71 68 65 61 58 54 50 46 43 40 37 34 31 29 26 24 23 21 19 19 18 16 14 12 10 8 6 4 3 2 0 359 357 356 353 351 349 347 343 339 336 333 331 329 329 328 325 320 315 311 311 309 307 305 302 297 291 288 287 286 285 275 257 247 247 241 235 235 234 232 237 235
100 102 103 102 100 97 93 88 84 81 78 75 73 69 66 62 59 56 53 50 47 44 40 37 34 31 28 25 24 22 19 17 16 15 14 11 9 7 5 3 1 0 360 359 359 358 356 354 352 350 348 346 342 337 333 330 328 328 328 328 326 321 315 311 310 309 306 304 301 294 287 284 281 280 275 261 249 246 239 231 231 233 231 232 234
105 107 107 105 102 98 94 90 86 82 78 74 71 67 63 59 56 54 51 50 48 45 41 37 33 30 27 25 23 21 19 17 14 12 11 8 6 4 2 0 359 358 358 357 358 358 357 356 355 351 348 345 342 339 336 333 329 326 326 327 327 325 321 315 311 310 309 307 304 298 291 285 278 273 272 267 254 245 239 233 231 232 232 231 233
113 112 108 104 101 97 94 89 85 80 76 72 68 64 60 57 55 53 50 48 46 43 40 36 33 30 27 25 22 20 19 18 14 10 7 5 3 1 360 359 358 357 356 356 357 358 358 357 356 353 349 346 341 338 336 334 333 330 328 327 326 325 324 321 316 313 310 305 302 300 295 287 281 274 266 260 256 250 245 240 236 235 235 234 234
122 115 108 103 100 96 92 87 83 78 74 70 66 62 59 56 54 52 49 47 44 41 38 34 32 30 27 25 22 20 19 17 14 9 6 2 360 358 358 358 357 356 356 355 356 358 357 357 356 355 353 349 345 340 336 333 332 332 331 329 328 325 324 323 320 317 312 305 299 297 296 290 286 281 269 259 257 254 251 248 243 239 237 235 233
124 115 109 104 100 96 92 86 82 77 73 69 66 63 60 57 55 52 49 46 43 40 36 33 32 29 26 25 22 21 19 16 11 7 4 1 359 358 358 358 358 358 358 359 359 359 358 357 357 356 355 353 349 345 341 336 332 331 330 330 329 327 326 324 320 316 313 307 298 293 292 289 285 283 276 268 263 258 254 252 248 242 236 231 228
121 114 109 106 101 96 91 86 82 78 74 70 67 64 61 58 55 52 49 46 42 40 36 34 32 30 27 25 23 22 19 13 9 6 4 1 359 359 1 1 1 3 3 4 3 1 360 359 359 358 356 354 352 348 344 341 336 333 332 331 330 331 330 328 323 317 312 308 300 292 288 286 283 279 275 272 268 264 258 252 248 243 237 233 230
119 114 110 106 101 96 91 87 84 79 74 70 66 63 60 58 54 51 49 45 42 40 37 35 33 32 29 27 25 23 17 11 8 6 4 1 359 2 6 7 8 9 8 7 6 4 2 1 0 359 356 354 353 349 345 342 340 337 335 335 334 334 333 330 328 322 314 308 301 291 284 282 280 276 272 269 267 264 259 253 248 243 238 235 234
117 113 109 104 100 96 92 88 84 79 74 69 65 61 58 56 53 51 48 46 44 42 40 38 36 35 33 29 27 23 17 12 10 7 5 2 2 7 12 14 14 13 11 10 8 6 4 3 2 359 357 355 353 349 344 341 341 340 338 338 336 335 334 333 331 326 319 311 301 290 281 275 274 273 271 268 263 261 260 257 251 245 240 236 237
116 111 107 102 98 95 91 87 83 78 73 68 64 60 57 54 52 49 46 45 44 43 42 41 39 38 35 32 29 24 18 14 10 8 7 5 7 13 17 17 16 14 12 12 11 9 7 6 3 359 358 356 352 348 345 341 340 340 338 337 336 334 335 335 333 327 321 315 306 293 281 273 270 270 270 268 263 258 255 256 258 256 250 241 236
114 109 105 100 96 93 89 86 82 77 72 68 64 60 57 54 51 48 47 46 45 44 43 42 41 39 36 33 30 26 21 17 13 11 9 8 11 17 19 18 17 15 13 12 12 11 11 10 6 2 360 357 352 349 346 342 340 339 337 335 334 334 334 334 333 330 325 320 312 299 285 276 270 268 267 266 264 258 249 248 256 257 249 239 234
114 109 104 100 96 91 87 84 80 76 71 67 63 60 57 54 52 49 47 46 45 44 43 41 39 37 36 35 32 29 25 20 17 14 12 13 17 21 19 18 18 15 13 10 9 9 11 13 10 5 0 358 354 351 348 344 342 342 339 337 335 334 334 334 334 333 330 325 317 306 292 281 273 268 265 262 261 257 245 241 251 252 241 231 228
115 110 104 100 95 91 86 82 78 74 70 65 62 59 56 54 52 49 47 47 46 44 42 40 38 36 36 35 33 30 27 23 20 18 17 19 23 23 16 15 17 14 11 10 8 6 8 11 12 7 2 359 357 355 352 348 346 346 344 341 338 336 336 336 335 335 334 330 325 318 310 294 276 264 261 258 256 252 241 236 245 253 247 235 227
116 111 106 100 95 89 84 81 76 72 68 64 61 58 56 55 53 51 49 47 45 43 40 38 36 36 35 35 33 31 28 26 23 23 24 24 26 26 20 16 16 15 11 8 7 6 6 6 8 7 3 2 1 360 358 355 351 351 350 345 341 340 340 339 338 336 333 334 332 329 325 315 291 267 256 254 253 250 243 236 236 246 253 248 235
118 112 106 100 95 90 84 79 76 72 68 64 61 58 56 56 55 53 50 48 45 42 39 36 35 35 34 34 33 31 29 28 27 27 28 27 27 29 26 20 17 15 12 8 6 6 6 5 7 7 5 6 6 5 4 2 358 356 356 352 347 343 341 342 344 341 338 339 342 340 335 327 310 285 263 252 248 248 246 240 233 236 249 252 240
119 113 106 102 96 91 86 80 76 73 69 65 61 57 56 56 55 54 52 48 45 42 39 36 34 34 34 33 32 31 29 28 28 29 29 28 28 29 26 22 18 16 15 15 11 8 8 9 10 10 10 11 11 10 9 8 5 2 0 358 355 348 344 347 352 354 357 360 360 358 352 343 329 307 280 259 249 248 249 245 237 232 239 246 243
122 115 108 105 98 92 88 82 78 75 70 65 61 57 55 54 52 52 51 48 46 43 40 36 34 33 33 32 32 30 29 28 28 28 28 28 29 28 25 22 18 16 17 19 17 15 14 14 14 15 16 16 16 15 14 13 12 9 5 3 1 359 359 360 358 0 11 18 19 16 10 3 357 342 313 278 255 251 253 252 245 237 234 236 238
126 119 112 108 101 95 91 85 81 77 70 66 62 57 54 52 50 49 49 46 45 43 40 37 35 34 33 32 31 30 28 27 27 26 26 26 28 28 26 23 21 18 18 20 19 18 18 18 17 19 21 21 20 19 19 18 18 16 12 10 8 7 9 11 9 9 17 23 25 26 23 18 15 8 354 337 317 292 274 264 258 251 242 235 232
132 125 118 112 105 99 94 89 85 80 73 68 63 57 53 50 48 47 45 43 42 41 38 36 34 33 33 31 30 28 28 27 26 24 23 23 25 26 25 23 22 20 19 20 21 20 20 21 22 23 24 23 23 23 22 22 22 21 19 18 15 12 13 14 14 17 21 24 25 27 29 28 27 23 14 2 358 355 326 294 276 264 253 243 235
138 133 127 121 114 106 100 95 90 84 79 71 64 59 54 49 46 44 41 40 38 37 37 35 34 33 32 30 29 27 27 26 25 23 21 20 21 22 23 23 22 20 19 20 21 22 22 23 24 25 25 24 24 24 23 22 23 24 23 23 21 19 18 16 16 19 24 27 28 27 29 31 33 33 29 19 16 20 13 354 328 293 267 251 241
148 144 138 133 126 118 110 103 97 91 86 77 67 63 57 51 48 44 40 38 35 33 34 34 34 33 31 29 28 26 25 25 23 21 19 18 17 17 18 19 19 18 17 17 18 20 22 24 24 25 25 25 25 24 22 22 23 24 25 25 25 24 24 23 21 22 25 28 30 30 31 32 34 35 34 29 28 29 24 13 359 337 313 278 249
160 159 155 148 141 134 125 114 106 101 97 86 74 68 63 56 52 46 41 38 33 31 31 31 32 32 30 28 27 26 25 23 21 19 17 15 14 13 13 13 15 14 12 12 15 18 21 24 24 24 24 25 25 24 22 21 22 24 25 26 27 27 29 30 29 29 30 31 33 33 33 35 37 38 36 34 33 32 26 18 8 1 358 342 281
166 168 168 164 155 148 139 129 123 118 111 101 86 76 70 62 57 51 44 39 35 32 30 29 29 29 28 26 26 26 25 22 20 19 16 12 11 10 8 8 9 10 7 7 12 17 21 23 23 22 22 23 23 22 22 20 22 24 26 26 27 28 30 33 36 36 36 36 37 37 36 38 40 40 40 40 38 35 30 26 25 22 20 15 345
166 169 173 172 167 162 154 144 141 137 129 121 103 86 76 68 64 56 45 38 36 33 31 31 30 28 26 24 24 24 24 22 21 19 17 14 11 10 8 7 7 6 5 6 12 18 21 22 21 20 21 21 20 20 21 20 20 23 26 26 27 28 30 32 34 35 36 36 37 38 38 40 41 42 42 43 43 40 36 35 35 33 31 36 41
170 171 174 175 172 167 160 153 151 147 143 138 125 98 78 70 68 60 46 37 34 32 31 30 29 28 27 24 23 23 23 22 20 19 18 17 16 14 12 11 11 9 7 9 16 21 21 21 20 19 18 18 17 18 19 20 20 21 24 26 28 29 29 31 33 34 34 34 36 37 39 41 42 43 44 44 44 43 42 42 43 43 42 46 54
177 174 173 172 167 161 157 154 150 147 145 143 140 123 92 70 63 56 46 35 30 28 28 26 25 25 25 24 22 22 22 21 19 18 17 17 18 17 14 14 16 15 12 14 21 24 23 20 19 17 16 15 15 16 17 19 20 20 22 25 28 29 29 30 32 33 33 34 35 36 39 41 43 44 45 47 46 44 44 46 47 49 52 54 59
181 175 173 171 164 157 154 152 148 145 142 138 136 136 125 91 55 42 37 31 25 24 25 23 21 19 19 20 19 20 21 21 18 17 16 17 17 17 16 16 18 19 19 21 25 26 23 20 18 16 13 12 13 14 16 18 19 21 22 24 27 28 30 31 32 33 33 34 34 34 37 41 44 45 46 48 48 47 47 48 49 50 53 57 62
182 180 179 174 167 160 155 152 149 145 140 133 131 131 128 120 76 32 25 22 19 18 20 19 17 14 13 14 15 16 17 18 18 16 15 16 17 17 16 18 20 21 23 25 23 21 20 19 17 15 13 11 11 12 14 16 18 20 23 26 27 28 30 32 33 33 33 33 34 35 35 39 44 46 46 48 48 49 50 51 52 53 55 57 62
183 189 188 181 175 170 164 158 153 149 141 134 131 128 120 109 83 46 23 13 8 7 10 13 12 10 8 7 8 11 13 14 15 14 14 15 16 15 15 18 19 21 24 25 22 18 18 18 16 14 11 10 9 10 12 14 17 19 22 26 27 27 29 31 33 33 33 33 34 34 35 38 42 44 45 47 47 47 50 53 54 56 57 59 62
186 192 192 188 185 181 176 171 167 163 155 147 140 135 125 110 77 43 19 7 4 1 359 1 3 4 4 2 3 6 8 8 10 11 12 14 14 13 15 18 20 21 23 25 22 19 17 16 14 12 10 9 8 8 9 13 17 18 20 25 26 26 27 29 30 32 34 35 34 34 35 37 41 42 43 45 46 46 48 52 55 57 58 60 63
189 194 194 192 190 188 184 183 184 184 182 178 176 173 165 149 81 6 348 346 354 353 348 346 350 353 355 356 357 360 2 4 5 7 9 11 12 12 15 18 20 21 21 21 20 19 16 13 11 10 9 8 7 7 9 13 17 19 21 24 26 25 25 26 27 30 34 35 35 35 35 37 41 43 44 44 45 46 48 51 55 58 59 60 63
195 202 199 194 192 191 191 194 198 201 205 211 214 217 228 246 267 303 317 320 329 334 334 335 338 341 343 346 350 353 356 358 2 5 6 6 9 13 15 17 18 19 18 17 18 18 16 13 12 10 9 7 6 7 10 13 17 20 21 24 25 25 25 26 27 30 33 34 34 36 36 36 39 43 44 44 44 46 48 51 54 57 60 61 63
202 210 206 200 196 195 199 205 210 212 217 223 227 233 241 252 267 285 298 308 318 322 323 325 328 329 332 335 339 345 350 354 359 3 5 5 6 10 13 14 15 17 16 14 14 15 13 12 11 10 8 7 6 7 11 14 17 20 21 23 25 25 25 25 26 28 31 32 33 35 36 37 38 41 43 45 45 46 48 51 53 55 57 59 61
206 210 208 205 203 202 206 212 217 219 222 224 227 234 243 251 264 277 288 301 315 320 322 324 322 321 325 329 333 339 344 348 352 357 2 5 6 6 8 10 11 13 14 12 12 12 10 8 8 8 7 6 5 7 11 15 18 20 22 23 25 25 24 24 23 23 25 28 31 33 35 37 39 40 43 45 47 47 49 50 52 54 56 58 60
205 207 207 207 209 209 210 214 220 224 226 226 228 234 240 249 260 270 280 293 308 318 324 326 321 319 323 326 329 334 338 339 343 349 356 2 4 4 5 6 6 8 10 11 11 11 9 7 7 6 5 4 5 8 12 16 19 22 24 25 26 25 25 24 23 22 22 24 28 32 35 37 39 40 42 45 48 49 50 51 52 53 56 59 61
209 211 211 211 213 215 218 222 228 233 234 233 233 234 240 248 256 263 274 286 299 310 319 322 320 319 324 327 328 331 334 335 336 340 347 355 0 2 2 2 1 3 6 8 9 10 9 8 7 6 4 4 5 9 13 17 21 23 26 27 28 28 28 27 26 25 24 24 26 29 34 38 40 40 41 44 47 49 51 53 53 53 54 58 61
215 217 219 219 220 224 229 233 236 237 237 236 236 239 243 249 254 261 271 281 290 297 302 309 316 320 325 331 333 333 333 333 334 336 340 346 352 356 359 360 358 358 1 3 5 7 8 9 9 7 4 3 5 8 12 17 20 23 25 27 28 28 29 28 28 27 27 27 28 29 33 39 42 42 41 42 45 47 49 52 54 54 54 56 60
221 223 225 226 229 234 237 238 238 238 238 239 242 245 247 248 252 260 268 274 281 283 281 285 306 321 326 334 340 341 340 337 335 335 338 342 345 349 354 357 356 355 357 359 1 3 6 8 9 9 6 4 4 7 11 15 18 21 24 26 27 27 27 28 28 28 28 28 30 32 36 39 42 44 44 43 44 46 47 49 51 53 54 56 59
224 225 226 228 233 238 239 238 238 240 242 243 245 246 245 245 250 258 262 263 267 267 263 267 284 307 320 327 335 340 342 340 338 338 341 344 345 345 347 351 353 353 354 356 357 358 1 4 8 9 8 7 5 6 9 13 16 19 21 23 25 26 26 27 27 27 28 29 31 33 37 39 41 43 44 44 44 44 45 47 49 51 53 55 58
223 223 225 228 234 238 240 239 238 240 244 246 246 247 247 247 251 256 257 254 253 253 256 262 272 287 303 315 323 330 335 337 339 343 348 349 347 344 344 346 349 350 351 352 354 355 357 0 4 8 9 9 8 9 10 12 14 17 19 19 20 21 23 25 26 26 28 30 32 34 37 39 41 41 42 43 44 43 43 45 48 49 51 54 57
220 220 222 227 233 238 241 241 239 240 244 247 248 250 251 250 250 253 256 254 251 253 258 264 270 279 290 299 306 315 323 327 331 337 345 349 348 345 342 342 344 346 346 347 349 351 352 354 359 5 9 9 10 12 14 14 14 15 16 17 18 19 20 22 24 25 26 29 32 35 37 40 41 42 42 44 44 44 44 45 47 48 50 52 55
221 220 221 226 233 240 243 242 239 240 244 247 249 252 254 251 248 249 254 256 255 255 260 266 272 279 285 290 295 301 308 314 319 323 329 336 342 343 341 339 340 340 341 341 343 346 347 348 352 360 6 9 11 14 19 20 20 19 17 16 16 17 18 20 22 24 25 27 31 35 38 40 41 42 43 45 45 44 44 43 44 46 50 52 53
225 224 223 226 233 241 245 245 242 241 244 247 250 253 255 253 248 247 250 256 258 258 261 266 272 278 283 286 289 291 294 300 307 310 313 319 326 332 336 336 335 335 335 335 335 338 341 343 346 353 1 6 9 15 21 23 24 25 24 22 20 19 18 18 19 21 22 24 27 32 36 40 42 42 43 44 45 44 44 43 42 42 45 50 54
230 230 229 231 236 243 248 247 244 243 244 246 250 254 256 255 251 249 250 254 258 259 261 266 271 278 282 285 286 286 287 291 296 299 302 305 310 317 326 331 331 329 329 328 327 329 333 337 341 347 354 359 2 9 17 22 25 25 26 26 25 24 23 20 19 19 20 21 24 28 32 35 39 41 42 43 43 43 43 43 42 40 41 47 55
231 233 234 237 240 244 248 249 247 246 245 246 248 252 256 257 255 253 253 256 259 261 263 265 270 276 280 283 284 285 284 284 287 290 293 296 299 303 311 320 325 324 322 321 320 320 323 328 334 341 346 350 352 355 3 12 18 21 23 24 25 26 26 25 22 20 19 18 19 22 26 29 32 36 38 40 41 41 41 41 41 41 42 47 53
232 234 237 241 244 246 249 250 249 248 247 246 247 250 253 256 257 257 257 259 262 263 263 265 270 275 279 281 282 283 283 282 282 283 285 288 292 294 298 306 315 317 316 314 313 313 314 318 324 330 336 340 341 343 346 353 1 8 13 17 19 21 23 24 24 23 22 20 19 18 18 21 25 28 31 34 36 38 39 40 42 43 45 47 50